CST,Max TemperatureF,Mean TemperatureF,Min TemperatureF,Max Dew PointF,MeanDew PointF,Min DewpointF,Max Humidity, Mean Humidity, Min Humidity, Max Sea Level PressureIn, Mean Sea Level PressureIn, Min Sea Level PressureIn, Max VisibilityMiles, Mean VisibilityMiles, Min VisibilityMiles, Max Wind SpeedMPH, Mean Wind SpeedMPH, Max Gust SpeedMPH,PrecipitationIn, CloudCover, Events, WindDirDegrees
2014-1-1,19,12,4,11,8,-2,84,76,67,30.41,30.23,30.11,10,6,0,22,14,26,0.01,4,Fog-Snow,10
2014-1-2,12,3,-7,-3,-6,-11,79,64,48,30.57,30.51,30.41,10,10,10,16,6,19,0.00,1,,349
2014-1-3,36,14,-8,23,10,-10,83,70,56,30.51,30.10,29.74,10,10,10,29,16,37,0.00,0,,179
2014-1-4,37,26,15,26,15,8,88,72,56,30.17,30.00,29.73,10,6,1,25,13,32,0.00,6,Snow,359
2014-1-5,16,6,-4,6,-5,-17,73,62,50,30.61,30.40,30.15,10,9,6,30,20,37,0.00,5,,347
2014-1-6,3,-3,-10,-10,-15,-20,82,67,51,30.64,30.57,30.46,10,10,8,25,9,30,0.00,1,,283
2014-1-7,31,12,-7,17,5,-11,79,66,53,30.43,30.25,30.13,10,10,10,16,7,20,0.00,2,,201
2014-1-8,22,19,15,14,11,9,74,66,57,30.45,30.38,30.27,10,10,6,14,7,17,0.00,6,,62
2014-1-9,28,21,14,25,15,7,92,82,71,30.41,30.22,30.04,10,7,2,9,6,,0.00,7,,131
2014-1-10,38,34,29,36,32,28,100,95,89,30.01,29.71,29.54,8,4,1,16,7,18,T,8,Rain,204
2014-1-11,44,35,25,32,29,24,100,81,62,29.92,29.80,29.64,10,8,4,21,9,25,0.00,2,,237
2014-1-12,56,42,27,34,29,25,92,68,43,29.82,29.63,29.49,10,10,10,24,10,33,0.00,0,,204
2014-1-13,44,36,28,32,28,24,85,67,49,29.90,29.81,29.68,10,10,10,20,9,24,0.00,1,,276
2014-1-14,44,33,21,32,21,11,75,55,35,30.25,30.04,29.75,10,10,10,37,16,46,0.00,1,,322
2014-1-15,36,25,13,25,12,4,73,52,31,30.30,30.13,29.82,10,10,10,21,9,24,T,3,,255
2014-1-16,45,32,18,27,18,7,74,57,40,30.10,29.92,29.77,10,8,2,43,21,53,T,5,Snow,315
2014-1-17,30,22,14,13,4,-5,73,47,21,30.22,30.14,30.01,10,10,10,32,12,43,T,1,,303
2014-1-18,48,32,16,28,18,12,77,61,45,30.15,29.90,29.71,10,10,10,41,17,54,T,4,Rain,293
2014-1-19,60,38,16,25,21,13,84,54,23,30.11,29.91,29.77,10,10,10,23,11,31,0.00,0,,225
2014-1-20,50,33,15,30,20,3,88,63,38,30.40,30.08,29.87,10,10,10,40,14,49,T,3,,327
2014-1-21,22,12,1,5,-4,-8,69,51,33,30.55,30.39,30.15,10,10,7,30,11,36,T,3,Snow,288
2014-1-22,34,19,4,14,6,-10,73,53,33,30.62,30.25,30.11,10,10,10,31,14,37,0.00,4,,324
2014-1-23,16,7,-2,-2,-8,-11,79,58,36,30.91,30.79,30.64,10,10,10,23,11,31,0.00,0,,317
2014-1-24,45,24,3,22,7,-5,76,52,28,30.63,30.14,29.75,10,10,10,31,16,40,T,3,Rain,220
2014-1-25,48,36,23,33,22,7,76,52,27,30.08,29.93,29.70,10,10,8,28,13,35,T,3,Rain,324
2014-1-26,56,36,15,30,21,-5,69,47,25,30.30,29.78,29.61,10,10,9,47,21,60,0.00,2,,299
2014-1-27,15,7,-2,-1,-10,-12,69,52,34,30.58,30.51,30.34,10,10,10,32,12,38,0.00,0,,345
2014-1-28,24,10,-5,8,-1,-10,86,60,33,30.57,30.47,30.35,10,10,10,18,5,27,T,2,,244
2014-1-29,44,24,3,12,7,-1,83,54,25,30.34,30.12,29.83,10,10,10,24,13,33,0.00,0,,184
2014-1-30,43,34,25,23,15,10,63,49,35,30.08,29.81,29.62,10,10,10,30,18,39,T,2,,261
2014-1-31,25,20,15,16,12,7,80,65,50,30.18,30.08,29.95,10,5,0,22,10,25,0.07,8,Fog-Snow,43